TimeHST,TemperatureF,Dew PointF,Humidity,Sea Level PressureIn,VisibilityMPH,Wind Direction,Wind SpeedMPH,Gust SpeedMPH,PrecipitationIn,Events,Conditions,WindDirDegrees,DateUTC
12:56 AM,65.8,61.9,87,29.96,10.0,Calm,Calm,-,N/A,,Clear,0,2013-05-20 10:56:00
1:56 AM,64.4,62.6,94,29.99,10.0,East,4.6,-,N/A,,Partly Cloudy,80,2013-05-20 11:56:00
2:56 AM,63.9,63.0,97,29.91,10.0,East,5.8,-,N/A,,Clear,80,2013-05-20 12:56:00
3:56 AM,63.9,63.0,97,29.93,-9999.0,ENE,4.6,-,N/A,,Clear,70,2013-05-20 13:56:00
4:56 AM,63.0,63.0,100,29.93,10.0,East,5.8,-,N/A,,Clear,80,2013-05-20 14:56:00
5:56 AM,63.9,63.9,100,29.94,10.0,ENE,4.6,-,N/A,,Clear,70,2013-05-20 15:56:00
6:10 AM,62.6,62.6,100,30.00,1.0,East,5.8,-,N/A,,Clear,80,2013-05-20 16:10:00
6:14 AM,62.6,62.6,100,30.00,0.2,East,5.8,-,N/A,Fog,Fog,90,2013-05-20 16:14:00
6:25 AM,62.6,62.6,100,30.00,0.8,NE,4.6,-,N/A,,Clear,50,2013-05-20 16:25:00
6:27 AM,62.6,62.6,100,30.00,1.8,NE,5.8,-,N/A,,Clear,50,2013-05-20 16:27:00
6:34 AM,62.6,62.6,100,30.01,10.0,NNE,5.8,-,N/A,,Clear,30,2013-05-20 16:34:00
6:56 AM,66.9,66.9,100,29.96,10.0,ENE,4.6,-,N/A,,Clear,60,2013-05-20 16:56:00
7:56 AM,73.4,64.4,73,30.03,10.0,Calm,Calm,-,N/A,,Partly Cloudy,0,2013-05-20 17:56:00
8:49 AM,73.4,64.4,73,30.03,10.0,South,4.6,-,N/A,,Mostly Cloudy,180,2013-05-20 18:49:00
8:56 AM,72.9,64.9,76,29.97,10.0,South,5.8,-,N/A,,Mostly Cloudy,180,2013-05-20 18:56:00
9:10 AM,75.2,66.2,73,30.02,10.0,Variable,4.6,-,N/A,,Mostly Cloudy,0,2013-05-20 19:10:00
9:56 AM,75.9,64.9,69,29.97,10.0,Variable,5.8,-,N/A,,Mostly Cloudy,0,2013-05-20 19:56:00
10:20 AM,78.8,64.4,61,30.02,10.0,Variable,3.5,-,N/A,,Scattered Clouds,0,2013-05-20 20:20:00
10:56 AM,78.8,64.4,61,30.02,10.0,Variable,5.8,-,N/A,,Scattered Clouds,0,2013-05-20 20:56:00
11:10 AM,80.6,64.4,58,30.02,10.0,Variable,6.9,-,N/A,,Mostly Cloudy,0,2013-05-20 21:10:00
11:17 AM,80.6,64.4,58,30.02,10.0,South,10.4,-,N/A,,Scattered Clouds,190,2013-05-20 21:17:00
11:56 AM,79.9,63.0,56,29.96,10.0,SSW,5.8,-,N/A,,Clear,210,2013-05-20 21:56:00
12:56 PM,77.0,64.9,66,29.95,10.0,West,8.1,-,N/A,,Mostly Cloudy,280,2013-05-20 22:56:00
1:56 PM,78.8,64.4,61,29.99,10.0,WSW,9.2,-,N/A,,Mostly Cloudy,250,2013-05-20 23:56:00
2:56 PM,79.9,64.9,60,29.92,10.0,WSW,10.4,-,N/A,,Scattered Clouds,250,2013-05-21 00:56:00
3:21 PM,78.8,64.4,61,29.98,10.0,West,10.4,-,N/A,,Mostly Cloudy,260,2013-05-21 01:21:00
3:43 PM,78.8,64.4,61,29.98,10.0,WSW,10.4,-,N/A,,Mostly Cloudy,250,2013-05-21 01:43:00
3:56 PM,75.9,64.9,69,29.93,10.0,WSW,9.2,-,N/A,,Mostly Cloudy,250,2013-05-21 01:56:00
4:00 PM,75.2,64.4,69,29.98,10.0,WSW,9.2,-,N/A,,Mostly Cloudy,250,2013-05-21 02:00:00
4:06 PM,73.4,64.4,73,29.98,2.5,West,6.9,16.1,N/A,,Haze,280,2013-05-21 02:06:00
4:14 PM,71.6,66.2,83,29.98,4.0,West,6.9,-,N/A,,Haze,270,2013-05-21 02:14:00
4:48 PM,71.6,66.2,83,29.98,10.0,West,8.1,-,N/A,,Mostly Cloudy,260,2013-05-21 02:48:00
4:56 PM,73.4,66.2,78,29.98,10.0,West,5.8,-,N/A,,Mostly Cloudy,260,2013-05-21 02:56:00
5:56 PM,72.9,63.9,73,29.94,10.0,North,3.5,-,N/A,,Overcast,360,2013-05-21 03:56:00
6:56 PM,70.9,64.9,81,29.96,10.0,Calm,Calm,-,N/A,,Mostly Cloudy,0,2013-05-21 04:56:00
7:56 PM,69.8,64.4,83,30.03,10.0,NE,4.6,-,N/A,,Mostly Cloudy,40,2013-05-21 05:56:00
8:56 PM,66.9,63.0,87,29.99,10.0,NE,3.5,-,N/A,,Clear,50,2013-05-21 06:56:00
9:56 PM,64.9,61.9,90,30.00,10.0,ENE,5.8,-,N/A,,Clear,70,2013-05-21 07:56:00
10:56 PM,64.9,61.0,87,30.00,10.0,ESE,3.5,-,N/A,,Clear,110,2013-05-21 08:56:00
11:56 PM,64.9,59.9,84,29.99,10.0,ENE,3.5,-,N/A,,Partly Cloudy,70,2013-05-21 09:56:00